TimeEST,TemperatureF,Dew PointF,Humidity,Sea Level PressureIn,VisibilityMPH,Wind Direction,Wind SpeedMPH,Gust SpeedMPH,PrecipitationIn,Events,Conditions,WindDirDegrees,DateUTC
12:15 AM,28.6,26.1,90,30.07,10.0,Calm,Calm,-,N/A,,Mostly Cloudy,0,2013-02-01 05:15:00
12:35 AM,29.7,27.3,91,30.07,10.0,Calm,Calm,-,N/A,,Overcast,0,2013-02-01 05:35:00
12:55 AM,30.2,27.7,90,30.06,10.0,Calm,Calm,-,N/A,,Overcast,0,2013-02-01 05:55:00
1:15 AM,30.9,28.6,91,30.05,10.0,Calm,Calm,-,N/A,,Overcast,0,2013-02-01 06:15:00
1:35 AM,31.3,28.4,89,30.05,10.0,Calm,Calm,-,N/A,,Overcast,0,2013-02-01 06:35:00
1:55 AM,31.6,28.8,89,30.04,10.0,Calm,Calm,-,N/A,,Overcast,0,2013-02-01 06:55:00
2:15 AM,31.6,29.3,91,30.04,10.0,West,3.5,-,N/A,,Overcast,270,2013-02-01 07:15:00
2:35 AM,33.1,27.3,79,30.03,10.0,WNW,3.5,-,N/A,,Overcast,300,2013-02-01 07:35:00
3:15 AM,38.7,28.0,66,30.03,10.0,West,16.1,26.5,N/A,,Overcast,260,2013-02-01 08:15:00
3:35 AM,38.5,28.2,67,30.03,10.0,West,15.0,26.5,N/A,,Overcast,260,2013-02-01 08:35:00
3:55 AM,37.6,28.0,68,30.06,10.0,WNW,16.1,29.9,N/A,Snow,Light Snow,300,2013-02-01 08:55:00
4:15 AM,35.6,25.9,68,30.07,10.0,West,17.3,23.0,N/A,,Overcast,280,2013-02-01 09:15:00
4:35 AM,35.1,25.7,69,30.06,10.0,West,15.0,-,N/A,,Overcast,280,2013-02-01 09:35:00
4:55 AM,34.2,25.0,69,30.08,10.0,West,17.3,24.2,N/A,,Overcast,270,2013-02-01 09:55:00
5:15 AM,32.0,22.3,67,30.10,10.0,West,15.0,29.9,N/A,,Scattered Clouds,260,2013-02-01 10:15:00
5:35 AM,31.5,18.1,58,30.11,10.0,West,13.8,27.6,N/A,,Clear,280,2013-02-01 10:35:00
6:15 AM,28.4,9.5,45,30.15,10.0,West,10.4,18.4,N/A,,Clear,280,2013-02-01 11:15:00
6:35 AM,27.5,12.0,52,30.16,10.0,WSW,8.1,-,N/A,,Clear,250,2013-02-01 11:35:00
7:15 AM,27.3,6.6,42,30.18,10.0,NE,4.6,17.3,N/A,,Clear,40,2013-02-01 12:15:00
7:35 AM,25.7,7.9,47,30.20,10.0,NNE,10.4,16.1,N/A,,Clear,30,2013-02-01 12:35:00
7:55 AM,24.8,7.3,48,30.21,10.0,NNE,13.8,18.4,N/A,,Clear,30,2013-02-01 12:55:00
8:15 AM,24.8,5.7,44,30.22,10.0,NNE,13.8,20.7,N/A,,Clear,20,2013-02-01 13:15:00
8:35 AM,24.8,6.6,46,30.23,10.0,North,11.5,16.1,N/A,,Clear,10,2013-02-01 13:35:00
8:55 AM,25.2,7.5,47,30.24,10.0,NNE,4.6,-,N/A,,Clear,30,2013-02-01 13:55:00
9:15 AM,26.1,9.5,50,30.25,10.0,ENE,5.8,-,N/A,,Clear,60,2013-02-01 14:15:00
9:35 AM,25.7,8.8,49,30.26,10.0,North,10.4,-,N/A,,Clear,360,2013-02-01 14:35:00
9:55 AM,26.1,9.1,49,30.28,10.0,NE,10.4,16.1,N/A,,Unknown,40,2013-02-01 14:55:00
10:15 AM,26.4,10.8,52,30.29,10.0,East,12.7,-,N/A,,Clear,90,2013-02-01 15:15:00
10:35 AM,26.6,10.0,50,30.29,10.0,East,10.4,-,N/A,,Clear,90,2013-02-01 15:35:00
11:15 AM,28.0,8.4,44,30.30,10.0,East,8.1,-,N/A,,Clear,80,2013-02-01 16:15:00
11:35 AM,30.0,8.4,40,30.29,10.0,NNE,5.8,-,N/A,,Clear,30,2013-02-01 16:35:00
11:55 AM,29.5,6.6,38,30.29,10.0,NE,9.2,-,N/A,,Clear,50,2013-02-01 16:55:00
12:15 PM,30.7,7.7,38,30.29,10.0,ENE,8.1,-,N/A,,Clear,60,2013-02-01 17:15:00
12:35 PM,32.0,9.5,39,30.29,10.0,NE,10.4,19.6,N/A,,Clear,50,2013-02-01 17:35:00
1:15 PM,32.5,7.9,36,30.28,10.0,ENE,10.4,18.4,N/A,,Clear,70,2013-02-01 18:15:00
1:35 PM,33.8,7.9,34,30.27,10.0,ENE,10.4,16.1,N/A,,Clear,60,2013-02-01 18:35:00
1:55 PM,33.1,5.7,32,30.26,10.0,NE,10.4,-,N/A,,Clear,50,2013-02-01 18:55:00
2:15 PM,33.3,6.6,33,30.26,10.0,NE,11.5,15.0,N/A,,Clear,50,2013-02-01 19:15:00
2:35 PM,33.3,7.5,34,30.26,10.0,NE,12.7,18.4,N/A,,Clear,50,2013-02-01 19:35:00
2:55 PM,34.0,7.3,33,30.25,10.0,ENE,12.7,17.3,N/A,,Clear,70,2013-02-01 19:55:00
3:15 PM,33.4,5.9,31,30.26,10.0,ENE,9.2,17.3,N/A,,Clear,70,2013-02-01 20:15:00
3:35 PM,33.3,5.5,31,30.25,10.0,ENE,11.5,18.4,N/A,,Clear,70,2013-02-01 20:35:00
3:55 PM,33.6,5.9,31,30.27,10.0,North,6.9,-,N/A,,Clear,360,2013-02-01 20:55:00
4:15 PM,33.3,3.0,28,30.27,10.0,North,4.6,-,N/A,,Clear,360,2013-02-01 21:15:00
4:35 PM,33.3,3.2,28,30.28,10.0,NNE,8.1,-,N/A,,Clear,20,2013-02-01 21:35:00
5:15 PM,32.0,3.9,31,30.27,10.0,North,9.2,-,N/A,,Clear,360,2013-02-01 22:15:00
5:35 PM,31.6,4.3,31,30.27,10.0,North,8.1,-,N/A,,Clear,360,2013-02-01 22:35:00
5:55 PM,30.4,4.1,33,30.28,10.0,North,6.9,-,N/A,,Clear,350,2013-02-01 22:55:00
6:15 PM,28.8,9.1,44,30.29,10.0,SSE,4.6,-,N/A,,Clear,160,2013-02-01 23:15:00
6:35 PM,28.0,8.1,43,30.29,10.0,Calm,Calm,-,N/A,,Clear,0,2013-02-01 23:35:00
6:55 PM,28.2,7.0,41,30.30,10.0,Calm,Calm,-,N/A,,Clear,0,2013-02-01 23:55:00
7:15 PM,27.1,10.4,49,30.31,10.0,Calm,Calm,-,N/A,,Clear,0,2013-02-02 00:15:00
7:35 PM,26.2,11.5,54,30.31,10.0,NW,3.5,-,N/A,,Clear,310,2013-02-02 00:35:00
7:55 PM,25.9,9.1,49,30.32,10.0,Calm,Calm,-,N/A,,Clear,0,2013-02-02 00:55:00
8:15 PM,24.8,11.1,56,30.32,10.0,Calm,Calm,-,N/A,,Clear,0,2013-02-02 01:15:00
8:35 PM,24.8,10.9,56,30.32,10.0,Calm,Calm,-,N/A,,Clear,0,2013-02-02 01:35:00
8:55 PM,23.0,12.6,64,30.32,10.0,Calm,Calm,-,N/A,,Clear,0,2013-02-02 01:55:00
9:15 PM,23.2,12.4,63,30.32,10.0,Calm,Calm,-,N/A,,Clear,0,2013-02-02 02:15:00
9:35 PM,22.3,13.6,69,30.32,10.0,Calm,Calm,-,N/A,,Clear,0,2013-02-02 02:35:00
9:55 PM,21.4,13.1,70,30.32,10.0,Calm,Calm,-,N/A,,Clear,0,2013-02-02 02:55:00
10:15 PM,22.3,13.8,70,30.32,10.0,Calm,Calm,-,N/A,,Clear,0,2013-02-02 03:15:00
10:35 PM,22.1,12.2,66,30.33,10.0,Calm,Calm,-,N/A,,Clear,0,2013-02-02 03:35:00
10:55 PM,21.4,12.7,69,30.33,10.0,Calm,Calm,-,N/A,,Clear,0,2013-02-02 03:55:00
11:15 PM,20.8,14.2,75,30.33,10.0,Calm,Calm,-,N/A,,Clear,0,2013-02-02 04:15:00
11:35 PM,21.0,13.3,72,30.33,10.0,Calm,Calm,-,N/A,,Clear,0,2013-02-02 04:35:00
11:55 PM,20.1,14.4,78,30.33,10.0,Calm,Calm,-,N/A,,Clear,0,2013-02-02 04:55:00